Weather History for KLGB - April, 2013

Change the Weather History Date:

Friday, April 12, 2013

  Actual Average Record
Temperature  
Mean Temperature 64 °F 62 °F  
Max Temperature 72 °F 71 °F 95 °F (2008)
Min Temperature 56 °F 53 °F 42 °F (1967)
Degree Days  
Heating Degree Days 1 4  
Month to date heating degree days 13 52  
Since 1 July heating degree days 997 1122  
Cooling Degree Days 0 1  
Month to date cooling degree days 4 12  
Year to date cooling degree days 16 30  
Growing Degree Days 14 (Base 50)    
Moisture  
Dew Point 51 °F    
Average Humidity 65    
Maximum Humidity 80    
Minimum Humidity 49    
Precipitation  
Precipitation 0.00 in 0.01 in 0.50 in (2010)
Month to date precipitation 0.00 0.32  
Year to date precipitation 2.19 7.88  
Since 1 July precipitation 5.99  
Sea Level Pressure  
Sea Level Pressure 29.83 in    
Wind  
Wind Speed 6 mph (South)    
Max Wind Speed 14 mph    
Max Gust Speed 16 mph    
Visibility 10 miles    
Events      
T = Trace of Precipitation, MM = Missing Value Source: NWS Daily Summary

Daily Weather History Graph

Daily Weather History Graph

Search for Another Location

Airport or City:

Trip Planner

Search our weather history database for the weather conditions in past years. The results will help you decide how hot, cold, wet, or windy it might be!

Date:

Astronomy

Apr. 12, 2013 Rise Set
Actual Time 6:25 AM PDT 7:21 PM PDT
Civil Twilight 5:59 AM PDT 7:47 PM PDT
Nautical Twilight 5:29 AM PDT 8:17 PM PDT
Astronomical Twilight 4:58 AM PDT 8:48 PM PDT
Moon 7:44 AM PDT (4/12) 9:49 PM PDT (4/12)
Length of Visible Light 13h 47m
Length of Day
12h 56m
Waxing Crescent, 6% of the Moon is Illuminated
Apr 12
Waxing Crescent
Apr 18
First Quarter
Apr 25
Full
May 2
Last Quarter
May 9
New

Hourly Weather History & Observations

Time (PDT) Temp. Dew Point Humidity Pressure Visibility Wind Dir Wind Speed Gust Speed Precip Events Conditions
12:53 AM 59.0 °F 50.0 °F 72% 29.82 in 10.0 mi SE 8.1 mph - N/A   Scattered Clouds
1:32 AM 59.0 °F 50.0 °F 72% 29.82 in 10.0 mi SE 8.1 mph - N/A   Mostly Cloudy
1:53 AM 59.0 °F 50.0 °F 72% 29.82 in 10.0 mi ESE 8.1 mph - N/A   Overcast
2:53 AM 59.0 °F 50.0 °F 72% 29.82 in 10.0 mi SE 5.8 mph - N/A   Overcast
3:53 AM 59.0 °F 50.0 °F 72% 29.82 in 10.0 mi SE 5.8 mph - N/A   Overcast
4:53 AM 59.0 °F 50.0 °F 72% 29.81 in 10.0 mi ESE 9.2 mph - N/A   Overcast
5:53 AM 59.0 °F 50.0 °F 72% 29.81 in 10.0 mi ESE 5.8 mph - N/A   Overcast
6:53 AM 59.0 °F 50.0 °F 72% 29.83 in 10.0 mi Calm Calm - N/A   Overcast
7:53 AM 60.1 °F 50.0 °F 69% 29.85 in 10.0 mi SSE 3.5 mph - N/A   Overcast
8:53 AM 61.0 °F 50.0 °F 67% 29.86 in 9.0 mi NNE 3.5 mph - N/A   Overcast
9:53 AM 63.0 °F 50.0 °F 63% 29.86 in 10.0 mi East 3.5 mph - N/A   Overcast
10:53 AM 64.0 °F 50.0 °F 60% 29.86 in 10.0 mi Calm Calm - N/A   Scattered Clouds
11:53 AM 66.9 °F 51.1 °F 57% 29.86 in 10.0 mi SSW 6.9 mph - N/A   Clear
12:53 PM 68.0 °F 51.1 °F 55% 29.84 in 10.0 mi SW 9.2 mph - N/A   Clear
1:53 PM 69.1 °F 51.1 °F 53% 29.82 in 10.0 mi Variable 6.9 mph - N/A   Clear
2:53 PM 71.1 °F 52.0 °F 51% 29.81 in 10.0 mi WSW 6.9 mph - N/A   Clear
3:53 PM 71.1 °F 52.0 °F 51% 29.79 in 10.0 mi WNW 11.5 mph - N/A   Clear
4:53 PM 68.0 °F 51.1 °F 55% 29.79 in 10.0 mi WNW 9.2 mph - N/A   Clear
5:53 PM 66.0 °F 52.0 °F 60% 29.79 in 10.0 mi WNW 11.5 mph - N/A   Clear
6:53 PM 63.0 °F 52.0 °F 67% 29.80 in 9.0 mi WNW 10.4 mph - N/A   Clear
7:53 PM 60.1 °F 52.0 °F 75% 29.82 in 9.0 mi WNW 9.2 mph - N/A   Clear
8:53 PM 57.9 °F 52.0 °F 81% 29.86 in 8.0 mi NW 5.8 mph - N/A   Clear
9:53 PM 57.9 °F 51.1 °F 78% 29.88 in 8.0 mi North 3.5 mph - N/A   Mostly Cloudy
10:53 PM 57.0 °F 51.1 °F 81% 29.89 in 8.0 mi Calm Calm - N/A   Overcast
11:53 PM 57.9 °F 52.0 °F 81% 29.91 in 8.0 mi South 4.6 mph - N/A   Overcast